Weather History for Kotzebue, AK

Change the Weather History Date:

Tuesday, May 15, 2012

  Actual Average Record
Temperature  
Mean Temperature -4 °C 0 °C  
Max Temperature -2 °C 3 °C 14 °C (1978)
Min Temperature -6 °C -3 °C -15 °C (1966)
Degree Days  
Heating Degree Days 40 33  
Month to date heating degree days 714 553  
Since 1 July heating degree days 15438 14333  
Cooling Degree Days 0    
Month to date cooling degree days 0  
Year to date cooling degree days 0  
Moisture  
Dew Point -6 °C    
Average Humidity 0    
Maximum Humidity 0    
Minimum Humidity 0    
Precipitation  
Precipitation T mm 0.25 mm 0.66 mm (1988)
Month to date precipitation 0.17 0.22  
Year to date precipitation 1.58 2.48  
Snow  
Snow T cm 0.00 cm 2.03 cm (1952)
Month to date snowfall 2.2 0.9  
Since 1 July snowfall 86.1 59.5  
Snow Depth 66.04 cm    
Sea Level Pressure  
Sea Level Pressure 1024 hPa    
Wind  
Wind Speed 13 km/h (SE)    
Max Wind Speed 29 km/h    
Max Gust Speed 34 km/h    
Visibility 9 kilometers    
Events Fog    
T = Trace of Precipitation, MM = Missing Value Source: NWS Daily Summary

Daily Weather History Graph

Daily Weather History Graph

Search for Another Location

Airport:

Trip Planner

Search our weather history database for the weather conditions in past years. The results will help you decide how hot, cold, wet, or windy it might be!

Date:

Astronomy

May. 15, 2012 Rise Set
Actual Time 4:54 AM AKDT 12:42 AM AKDT
Civil Twilight 3:19 AM AKDT 2:14 AM AKDT
Nautical Twilight Sun does not rise Sun does not rise
Astronomical Twilight Sun does not rise Sun does not rise
Moon 4:25 AM AKDT (5/15) 6:02 PM AKDT (5/15)
Length of Visible Light 22h 55m
Length of Day
19h 47m
Waning Crescent, 22% of the Moon is Illuminated
May 15
Waning Crescent
May 20
New
May 28
First Quarter
Jun 4
Full
Jun 11
Last Quarter

Hourly Weather History & Observations

Time (AKDT) Temp. Windchill Dew Point Humidity Pressure Visibility Wind Dir Wind Speed Gust Speed Precip Events Conditions
12:22 AM -6.0 °C -10.2 °C -7.0 °C 93% 1022.9 hPa 1.2 km SSW 9.3 km/h / 2.6 m/s - N/A   Mist
12:50 AM -6.0 °C -10.2 °C -6.0 °C 100% 1023.2 hPa 0.8 km SSW 9.3 km/h / 2.6 m/s - N/A Fog Light Freezing Fog
12:53 AM -6.1 °C -10.9 °C -6.7 °C 96% 1023.3 hPa 0.8 km SSW 11.1 km/h / 3.1 m/s - N/A Fog Light Freezing Fog
12:57 AM -6.0 °C -10.8 °C -7.0 °C 93% 1023.2 hPa 1.6 km SSW 11.1 km/h / 3.1 m/s - N/A   Mist
1:08 AM -6.0 °C -10.2 °C -7.0 °C 93% 1023.2 hPa 4.8 km SW 9.3 km/h / 2.6 m/s - N/A   Overcast
1:30 AM -6.0 °C -10.8 °C -7.0 °C 93% 1023.6 hPa 2.8 km SSW 11.1 km/h / 3.1 m/s - N/A   Overcast
1:44 AM -6.0 °C -10.8 °C -7.0 °C 93% 1023.6 hPa 1.2 km SSW 11.1 km/h / 3.1 m/s - N/A   Overcast
1:51 AM -6.0 °C -10.2 °C -7.0 °C 93% 1023.6 hPa 1.6 km SW 9.3 km/h / 2.6 m/s - N/A   Mist
1:53 AM -5.6 °C -9.7 °C -6.7 °C 92% 1023.7 hPa 1.6 km SSW 9.3 km/h / 2.6 m/s - N/A   Mist
2:20 AM -6.0 °C -9.5 °C -6.0 °C 100% 1023.6 hPa 1.2 km SW 7.4 km/h / 2.1 m/s - N/A   Mist
2:37 AM -6.0 °C -8.7 °C -6.0 °C 100% 1023.6 hPa 1.6 km SSW 5.6 km/h / 1.5 m/s - N/A   Overcast
2:53 AM -6.1 °C -8.8 °C -6.7 °C 96% 1023.7 hPa 2.0 km SSW 5.6 km/h / 1.5 m/s - N/A   Overcast
3:06 AM -6.0 °C - -7.0 °C 93% 1023.6 hPa 4.8 km Calm Calm - N/A   Overcast
3:22 AM -6.0 °C - -7.0 °C 93% 1023.9 hPa 4.0 km Calm Calm - N/A   Overcast
3:28 AM -6.0 °C - -7.0 °C 93% 1023.9 hPa 4.8 km Calm Calm - N/A   Overcast
3:46 AM -6.0 °C - -7.0 °C 93% 1023.9 hPa 3.2 km Calm Calm - N/A   Overcast
3:53 AM -5.6 °C - -6.7 °C 92% 1023.9 hPa 6.4 km Calm Calm - N/A   Overcast
4:53 AM -5.6 °C -9.7 °C -6.7 °C 92% 1023.9 hPa 9.7 km ENE 9.3 km/h / 2.6 m/s - N/A   Overcast
5:13 AM -6.0 °C -10.2 °C -7.0 °C 93% 1023.9 hPa 3.2 km ENE 9.3 km/h / 2.6 m/s - N/A   Overcast
5:30 AM -6.0 °C -10.2 °C -7.0 °C 93% 1023.9 hPa 4.8 km ENE 9.3 km/h / 2.6 m/s - N/A   Overcast
5:53 AM -5.6 °C -9.7 °C -6.7 °C 92% 1023.7 hPa 4.8 km ENE 9.3 km/h / 2.6 m/s - N/A   Overcast
6:41 AM -6.0 °C -10.8 °C -6.0 °C 100% 1023.9 hPa 8.0 km ENE 11.1 km/h / 3.1 m/s - N/A   Overcast
6:53 AM -5.6 °C -10.8 °C -6.1 °C 96% 1023.8 hPa 8.0 km ENE 13.0 km/h / 3.6 m/s - N/A   Overcast
7:53 AM -5.0 °C -10.1 °C -6.1 °C 92% 1023.9 hPa 16.1 km ENE 13.0 km/h / 3.6 m/s - N/A   Overcast
8:53 AM -5.0 °C -10.9 °C -6.1 °C 92% 1024.1 hPa 14.5 km East 16.7 km/h / 4.6 m/s - N/A   Overcast
9:49 AM -5.0 °C -11.3 °C -6.0 °C 93% 1023.9 hPa 12.9 km East 18.5 km/h / 5.1 m/s - N/A   Overcast
9:53 AM -5.0 °C -11.3 °C -6.1 °C 92% 1024.1 hPa 12.9 km East 18.5 km/h / 5.1 m/s - N/A   Overcast
10:53 AM -5.0 °C -12.2 °C -6.1 °C 92% 1024.5 hPa 14.5 km ESE 24.1 km/h / 6.7 m/s - N/A   Overcast
11:53 AM -4.4 °C -11.1 °C -5.6 °C 91% 1024.5 hPa 11.3 km ESE 22.2 km/h / 6.2 m/s - N/A   Overcast
12:00 PM -4.0 °C -10.6 °C -5.0 °C 93% 1024.6 hPa 9.7 km ESE 22.2 km/h / 6.2 m/s - N/A   Overcast
12:53 PM -2.8 °C -9.6 °C -3.9 °C 92% 1024.6 hPa 8.0 km SE 25.9 km/h / 7.2 m/s - N/A   Overcast
1:53 PM -2.8 °C -9.6 °C -4.4 °C 89% 1024.6 hPa 16.1 km SE 25.9 km/h / 7.2 m/s - N/A   Overcast
2:53 PM -2.8 °C -9.4 °C -4.4 °C 89% 1024.7 hPa 16.1 km ESE 24.1 km/h / 6.7 m/s - 0.0 mm   Overcast
3:53 PM -2.8 °C -9.4 °C -4.4 °C 89% 1024.6 hPa 16.1 km ESE 24.1 km/h / 6.7 m/s - N/A   Overcast
4:53 PM -2.2 °C -8.0 °C -3.9 °C 88% 1024.4 hPa 16.1 km ESE 20.4 km/h / 5.7 m/s - N/A   Overcast
5:53 PM -1.7 °C -7.4 °C -3.3 °C 89% 1024.0 hPa 16.1 km SE 20.4 km/h / 5.7 m/s - N/A   Overcast
6:08 PM -2.0 °C -7.8 °C -3.0 °C 93% 1023.9 hPa 16.1 km ESE 20.4 km/h / 5.7 m/s - N/A   Overcast
6:53 PM -1.1 °C -6.9 °C -3.3 °C 85% 1023.8 hPa 16.1 km ESE 22.2 km/h / 6.2 m/s - N/A   Overcast
7:00 PM -1.0 °C -7.3 °C -3.0 °C 86% 1023.6 hPa 16.1 km ESE 25.9 km/h / 7.2 m/s - N/A   Partly Cloudy
7:53 PM -0.6 °C -7.0 °C -2.8 °C 85% 1023.5 hPa 16.1 km ESE 27.8 km/h / 7.7 m/s - N/A   Partly Cloudy
8:53 PM -0.6 °C -6.8 °C -2.2 °C 89% 1023.2 hPa 16.1 km ESE 25.9 km/h / 7.2 m/s - N/A   Overcast
9:53 PM 0.0 °C -6.2 °C -2.2 °C 85% 1023.0 hPa 16.1 km ESE 27.8 km/h / 7.7 m/s - N/A   Overcast
10:53 PM 0.0 °C -6.0 °C -2.2 °C 85% 1022.8 hPa 16.1 km ESE 25.9 km/h / 7.2 m/s - N/A   Overcast
11:53 PM 0.0 °C -5.5 °C -2.8 °C 82% 1022.8 hPa 16.1 km ESE 22.2 km/h / 6.2 m/s - N/A   Mostly Cloudy